Date String (YYYY-MM-DD hh:mm:ss) UTC,Instrument flags,absolute air pressure of the measurement (hPa),sample flow rate (lpm),inlet stack bypass flow (lpm),air temperature of the measurement (°C),ambient temperature measured by the external sensor (°C),aerosol sample conditioner tube jacket temperature (°C),OPC LED temperature (°C),internal box temperature (°C),relative humidity of the measurement (%),span deviation,mass concentration of particles derived from Lorenz-Mie calculation of OPC scattering (μg/m³),mass concentration of particles derived from Lorenz-Mie calculation of OPC scattering (μg/m³),mass concentration of particles derived from Lorenz-Mie calculation of OPC scattering (μg/m³)
DateTimeUTC,F1_M11,P_M11,Q1_M11,Q2_M11,T1_M11,T2_M11,T3_M11,T4_M11,T5_M11,U1_M11,ZSPAN_M11,X2_M11,X0_M11,X1_M11
2024-06-13 17:00:00,SystemResetWarning,0831.3,5.00,000.00,029.1,028.6,000.0,037.0,030.9,025.3,0000.0,0007.36,0028.76,0005.74
2024-06-13 17:01:00,SystemResetWarning,0831.3,5.00,000.00,029.1,028.5,000.0,037.1,030.8,025.8,0000.0,0007.31,0028.06,0005.73
2024-06-13 17:02:00,SystemResetWarning,0831.3,4.99,000.00,028.9,026.7,000.0,037.2,029.9,026.0,0000.0,0007.27,0027.49,0005.71
2024-06-13 17:03:00,SystemResetWarning,0831.2,5.02,000.00,028.6,025.7,000.0,037.2,029.5,026.5,0000.0,0007.27,0027.62,0005.72
2024-06-13 17:04:00,SystemResetWarning,0831.2,5.00,000.00,028.5,026.3,000.0,037.2,029.7,026.3,0000.0,0007.33,0028.15,0005.75
2024-06-13 17:05:00,SystemResetWarning,0831.3,5.00,000.00,028.5,026.7,000.0,037.1,029.9,026.7,0000.0,0007.39,0028.30,0005.75
2024-06-13 17:06:00,SystemResetWarning,0831.3,5.00,000.00,028.6,027.1,000.0,037.0,030.2,026.0,0000.0,0007.46,0028.99,0005.77
2024-06-13 17:07:00,SystemResetWarning,0831.3,4.99,000.00,028.7,027.5,000.0,037.0,030.3,026.5,0000.0,0007.58,0029.08,0005.79
2024-06-13 17:08:00,SystemResetWarning,0831.3,5.00,000.00,028.8,027.8,000.0,037.0,030.5,026.4,0000.0,0007.67,0028.55,0005.81
2024-06-13 17:09:00,SystemResetWarning,0831.3,5.01,000.00,028.8,028.1,000.0,037.0,030.7,025.8,0000.0,0007.67,0028.90,0005.81
2024-06-13 17:10:00,SystemResetWarning,0831.4,5.00,000.00,028.9,028.3,000.0,037.0,030.8,025.0,0000.0,0007.73,0029.08,0005.82
2024-06-13 17:11:00,SystemResetWarning,0831.4,5.00,000.00,029.0,028.5,000.0,037.0,030.9,024.4,0000.0,0007.78,0030.68,0005.82
2024-06-13 17:12:00,SystemResetWarning,0831.4,4.99,000.00,029.1,028.6,000.0,037.1,030.9,024.3,0000.0,0007.78,0029.78,0005.82
2024-06-13 17:13:00,SystemResetWarning,0831.4,4.99,000.00,029.0,027.1,000.0,037.2,030.1,025.0,0000.0,0007.80,0029.16,0005.81
2024-06-13 17:14:00,SystemResetWarning,0831.3,5.02,000.00,028.6,025.8,000.0,037.2,029.5,026.3,0000.0,0007.78,0029.27,0005.80
2024-06-13 17:15:00,SystemResetWarning,0831.4,5.00,000.00,028.5,026.2,000.0,037.2,029.7,026.3,0000.0,0007.73,0028.71,0005.80
2024-06-13 17:16:00,SystemResetWarning,0831.4,4.99,000.00,028.5,026.7,000.0,037.1,029.9,026.7,0000.0,0007.71,0028.19,0005.80
2024-06-13 17:17:00,SystemResetWarning,0831.4,5.01,000.00,028.6,027.1,000.0,037.0,030.1,026.1,0000.0,0007.69,0027.56,0005.80
2024-06-13 17:18:00,SystemResetWarning,0831.4,5.00,000.00,028.7,027.4,000.0,037.0,030.3,025.4,0000.0,0007.68,0027.53,0005.79
2024-06-13 17:19:00,SystemResetWarning,0831.4,5.00,000.00,028.7,027.8,000.0,037.0,030.5,025.9,0000.0,0007.66,0026.75,0005.80
2024-06-13 17:20:00,SystemResetWarning,0831.4,5.00,000.00,028.8,028.0,000.0,037.0,030.6,025.9,0000.0,0007.68,0026.27,0005.80
2024-06-13 17:21:00,SystemResetWarning,0831.4,5.00,000.00,028.9,028.3,000.0,037.0,030.8,025.8,0000.0,0007.63,0025.78,0005.80
2024-06-13 17:22:00,SystemResetWarning,0831.4,5.00,000.00,029.0,028.5,000.0,037.0,030.9,024.8,0000.0,0007.63,0024.39,0005.81
2024-06-13 17:23:00,SystemResetWarning,0831.4,4.99,000.00,029.1,028.2,000.0,037.1,030.7,025.3,0000.0,0007.63,0024.24,0005.82
2024-06-13 17:24:00,SystemResetWarning,0831.4,4.99,000.00,028.8,026.3,000.0,037.2,029.9,025.5,0000.0,0007.62,0024.26,0005.83
2024-06-13 17:25:00,SystemResetWarning,0831.3,5.01,000.00,028.5,025.7,000.0,037.2,029.5,026.2,0000.0,0007.61,0023.69,0005.83
2024-06-13 17:26:00,SystemResetWarning,0831.4,5.01,000.00,028.5,026.3,000.0,037.1,029.7,026.4,0000.0,0007.61,0023.74,0005.82
2024-06-13 17:27:00,SystemResetWarning,0831.4,4.99,000.00,028.5,026.7,000.0,037.0,030.0,026.7,0000.0,0007.60,0025.36,0005.81
2024-06-13 17:28:00,SystemResetWarning,0831.4,5.00,000.00,028.6,027.1,000.0,037.0,030.2,026.8,0000.0,0007.65,0025.05,0005.80
2024-06-13 17:29:00,SystemResetWarning,0831.4,5.00,000.00,028.7,027.5,000.0,036.9,030.3,026.2,0000.0,0007.63,0025.37,0005.78
2024-06-13 17:30:00,SystemResetWarning,0831.5,4.99,000.00,028.7,027.8,000.0,036.9,030.5,026.3,0000.0,0007.62,0026.51,0005.75
2024-06-13 17:31:00,SystemResetWarning,0831.4,5.00,000.00,028.8,028.1,000.0,036.9,030.7,026.2,0000.0,0007.58,0027.25,0005.73
2024-06-13 17:32:00,SystemResetWarning,0831.5,5.00,000.00,028.9,028.3,000.0,037.0,030.8,025.2,0000.0,0007.59,0026.70,0005.69
2024-06-13 17:33:00,SystemResetWarning,0831.4,5.00,000.00,029.0,028.5,000.0,037.0,030.9,024.2,0000.0,0007.54,0027.16,0005.66
2024-06-13 17:34:00,SystemResetWarning,0831.4,4.98,000.00,029.0,027.6,000.0,037.1,030.5,024.6,0000.0,0007.47,0027.89,0005.63
2024-06-13 17:35:00,SystemResetWarning,0831.4,5.02,000.00,028.7,025.8,000.0,037.1,029.5,024.6,0000.0,0007.44,0028.77,0005.61
2024-06-13 17:36:00,SystemResetWarning,0831.3,5.02,000.00,028.5,025.9,000.0,037.1,029.5,024.8,0000.0,0007.49,0029.18,0005.61
2024-06-13 17:37:00,SystemResetWarning,0831.4,4.98,000.00,028.5,026.4,000.0,037.1,029.8,025.1,0000.0,0007.47,0028.77,0005.59
2024-06-13 17:38:00,SystemResetWarning,0831.4,5.00,000.00,028.5,026.8,000.0,037.0,030.0,025.2,0000.0,0007.47,0027.03,0005.59
2024-06-13 17:39:00,SystemResetWarning,0831.4,5.00,000.00,028.6,027.2,000.0,036.9,030.2,024.8,0000.0,0007.44,0026.68,0005.58
2024-06-13 17:40:00,SystemResetWarning,0831.4,5.00,000.00,028.7,027.6,000.0,036.9,030.4,024.9,0000.0,0007.40,0025.38,0005.59
2024-06-13 17:41:00,SystemResetWarning,0831.3,5.01,000.00,028.8,027.9,000.0,036.9,030.6,025.3,0000.0,0007.39,0025.92,0005.60
2024-06-13 17:42:00,SystemResetWarning,0831.4,4.99,000.00,028.9,028.1,000.0,036.9,030.7,025.6,0000.0,0007.39,0024.91,0005.61
2024-06-13 17:43:00,SystemResetWarning,0831.4,5.00,000.00,029.0,028.4,000.0,037.0,030.8,025.0,0000.0,0007.36,0025.88,0005.62
2024-06-13 17:44:00,SystemResetWarning,0831.4,4.99,000.00,029.0,028.4,000.0,037.0,030.8,024.2,0000.0,0007.40,0025.47,0005.62
2024-06-13 17:45:00,SystemResetWarning,0831.4,5.00,000.00,028.9,026.9,000.0,037.1,030.1,024.8,0000.0,0007.43,0024.82,0005.62
2024-06-13 17:46:00,SystemResetWarning,0831.3,5.01,000.00,028.6,025.7,000.0,037.1,029.5,025.4,0000.0,0007.42,0023.89,0005.61
2024-06-13 17:47:00,SystemResetWarning,0831.4,5.01,000.00,028.5,026.2,000.0,037.1,029.6,026.2,0000.0,0007.39,0025.32,0005.58
2024-06-13 17:48:00,SystemResetWarning,0831.4,5.00,000.00,028.5,026.6,000.0,037.0,029.8,025.5,0000.0,0007.33,0026.63,0005.54
2024-06-13 17:49:00,SystemResetWarning,0831.4,5.00,000.00,028.6,027.0,000.0,036.9,030.1,024.6,0000.0,0007.34,0026.97,0005.53
2024-06-13 17:50:00,SystemResetWarning,0831.4,5.00,000.00,028.6,027.4,000.0,036.9,030.3,024.0,0000.0,0007.32,0028.04,0005.50
2024-06-13 17:51:00,SystemResetWarning,0831.3,5.00,000.00,028.7,027.7,000.0,036.9,030.5,024.5,0000.0,0007.32,0029.34,0005.45
2024-06-13 17:52:00,SystemResetWarning,0831.3,5.00,000.00,028.8,028.0,000.0,036.9,030.6,023.7,0000.0,0007.27,0027.55,0005.42
2024-06-13 17:53:00,SystemResetWarning,0831.3,5.01,000.00,028.9,028.2,000.0,036.9,030.7,024.0,0000.0,0007.26,0027.87,0005.40
2024-06-13 17:54:00,SystemResetWarning,0831.3,5.00,000.00,029.0,028.4,000.0,037.0,030.9,024.8,0000.0,0007.30,0028.53,0005.38
2024-06-13 17:55:00,SystemResetWarning,0831.3,4.99,000.00,029.1,028.2,000.0,037.0,030.7,023.8,0000.0,0007.26,0028.68,0005.37
2024-06-13 17:56:00,SystemResetWarning,0831.3,4.99,000.00,028.8,026.4,000.0,037.1,029.8,024.1,0000.0,0007.27,0028.53,0005.36
2024-06-13 17:57:00,SystemResetWarning,0831.3,5.02,000.00,028.5,025.8,000.0,037.1,029.5,023.7,0000.0,0007.31,0029.12,0005.38
2024-06-13 17:58:00,SystemResetWarning,0831.3,4.99,000.00,028.5,026.4,000.0,037.1,029.7,024.3,0000.0,0007.35,0026.77,0005.41
2024-06-13 17:59:00,SystemResetWarning,0831.3,5.00,000.00,028.5,026.7,000.0,037.0,029.9,023.0,0000.0,0007.45,0026.14,0005.44
